Weather History for KAPN - November, 2011

Change the Weather History Date:

Tuesday, November 1, 2011

  Actual Average Record
Temperature  
Mean Temperature 42 °F 41 °F  
Max Temperature 55 °F 49 °F 77 °F (1950)
Min Temperature 29 °F 32 °F 19 °F (2010)
Degree Days  
Heating Degree Days 23 24  
Month to date heating degree days 23 24  
Since 1 July heating degree days 812 968  
Cooling Degree Days 0 0  
Month to date cooling degree days 0 0  
Year to date cooling degree days 405 291  
Moisture  
Dew Point 35 °F    
Average Humidity 77    
Maximum Humidity 100    
Minimum Humidity 54    
Precipitation  
Precipitation 0.00 in 0.08 in 1.34 in (1941)
Month to date precipitation 0.00 0.08  
Year to date precipitation 33.33 24.39  
Snow  
Snow 0.00 in 0.10 in 2.10 in (1926)
Month to date snowfall 0.0 0.1  
Since 1 July snowfall 0.0 0.5  
Snow Depth 0.00 in    
Sea Level Pressure  
Sea Level Pressure 30.13 in    
Wind  
Wind Speed 6 mph (SSW)    
Max Wind Speed 18 mph    
Max Gust Speed 23 mph    
Visibility 9 miles    
Events      
T = Trace of Precipitation, MM = Missing Value Source: NWS Daily Summary

Daily Weather History Graph

Daily Weather History Graph

Search for Another Location

Airport or City:

Trip Planner

Search our weather history database for the weather conditions in past years. The results will help you decide how hot, cold, wet, or windy it might be!

Date:

Astronomy

Nov. 01, 2011 Rise Set
Actual Time 8:12 AM EDT 6:22 PM EDT
Civil Twilight 7:41 AM EDT 6:53 PM EDT
Nautical Twilight 7:07 AM EDT 7:27 PM EDT
Astronomical Twilight 6:32 AM EDT 8:01 PM EDT
Moon 2:01 PM EDT No Moon Set
Length of Visible Light 11h 11m
Length of Day
10h 10m
Waxing Crescent, 39% of the Moon is Illuminated
Nov 1
Waxing Crescent
Nov 2
First Quarter
Nov 10
Full
Nov 18
Last Quarter
Nov 25
New

Hourly Weather History & Observations

Time (EDT) Temp. Windchill Dew Point Humidity Pressure Visibility Wind Dir Wind Speed Gust Speed Precip Events Conditions
12:54 AM 41.0 °F 38.0 °F 36.0 °F 82% 30.12 in 10.0 mi SSW 4.6 mph - N/A   Clear
1:54 AM 37.0 °F - 34.0 °F 89% 30.13 in 10.0 mi Calm Calm - N/A   Clear
2:54 AM 30.9 °F - 30.0 °F 96% 30.13 in 5.0 mi Calm Calm - N/A   Clear
3:54 AM 30.9 °F - 28.9 °F 92% 30.15 in 9.0 mi Calm Calm - N/A   Partly Cloudy
4:18 AM 32.0 °F 28.7 °F 30.2 °F 93% 30.13 in 10.0 mi SW 3.5 mph - N/A   Mostly Cloudy
4:39 AM 30.2 °F - 28.4 °F 93% 30.14 in 10.0 mi Calm Calm - N/A   Mostly Cloudy
4:54 AM 33.1 °F - 30.9 °F 92% 30.16 in 10.0 mi Calm Calm - N/A   Overcast
5:54 AM 35.1 °F - 33.1 °F 92% 30.16 in 10.0 mi Calm Calm - N/A   Overcast
6:54 AM 33.1 °F 30.0 °F 30.9 °F 92% 30.18 in 8.0 mi South 3.5 mph - N/A   Clear
7:54 AM 37.0 °F 33.3 °F 36.0 °F 96% 30.18 in 7.0 mi SSW 4.6 mph - N/A   Overcast
8:54 AM 39.0 °F 34.0 °F 37.0 °F 93% 30.18 in 6.0 mi South 6.9 mph - N/A   Overcast
9:54 AM 42.1 °F 37.7 °F 37.9 °F 85% 30.19 in 9.0 mi South 6.9 mph - N/A   Overcast
10:54 AM 45.0 °F 41.2 °F 37.9 °F 76% 30.18 in 10.0 mi South 6.9 mph - N/A   Overcast
11:54 AM 46.9 °F - 37.0 °F 68% 30.17 in 10.0 mi SSW 9.2 mph - N/A   Mostly Cloudy
12:54 PM 52.0 °F - 37.0 °F 57% 30.14 in 10.0 mi SSW 12.7 mph 19.6 mph N/A   Partly Cloudy
1:54 PM 53.1 °F - 37.0 °F 55% 30.12 in 10.0 mi SSW 11.5 mph - N/A   Partly Cloudy
2:54 PM 54.0 °F - 37.9 °F 55% 30.12 in 10.0 mi SSW 11.5 mph 18.4 mph N/A   Clear
3:54 PM 54.0 °F - 37.0 °F 53% 30.11 in 10.0 mi SSW 9.2 mph - N/A   Clear
4:54 PM 54.0 °F - 37.0 °F 53% 30.11 in 10.0 mi SW 6.9 mph - N/A   Clear
5:54 PM 53.1 °F - 37.0 °F 55% 30.11 in 10.0 mi SSW 6.9 mph - N/A   Partly Cloudy
6:54 PM 48.9 °F - 37.9 °F 66% 30.10 in 10.0 mi SSE 4.6 mph - N/A   Clear
7:54 PM 46.0 °F 43.9 °F 37.9 °F 73% 30.09 in 8.0 mi South 4.6 mph - N/A   Clear
8:54 PM 46.0 °F 43.1 °F 37.0 °F 71% 30.08 in 10.0 mi South 5.8 mph - N/A   Clear
9:54 PM 46.0 °F 42.5 °F 37.0 °F 71% 30.09 in 10.0 mi South 6.9 mph - N/A   Clear
10:54 PM 46.9 °F - 36.0 °F 66% 30.07 in 10.0 mi South 8.1 mph - N/A   Clear
11:54 PM 48.0 °F - 36.0 °F 63% 30.07 in 10.0 mi South 4.6 mph - N/A   Clear